Torna al catalogo

STARLINK-4687

AttivoComunicazioniVLEO
NORAD 53784·PAYLOAD·🇺🇸 United States

Lanciato Sep 11, 2022 da Cape Canaveral Space Force Station

Loading…

Prossimi Passaggi (prossime 24 ore)

TLE

AggiornatoSource: CelesTrak SupGP

Epoca: Sep 14, 2026, 13:37 UTC

1 53784C 22111M   26257.56784722  .00048715  00000+0  15675-2 0  2574
2 53784  53.1563 133.3958 0001244  99.6775 286.3140 15.31658229    15

Traccia STARLINK-4687 in tempo reale con AllMySat

Download on the App Store